Location: Endfield
(51.6667°N, 0.0667°W)
Time: 19:46:22
(UTC+00:00)

Cosmos 1766 Rocket - Pass Details

Date: 19 May 2024
Orbit: 603 x 628 km, 82.5° (Epoch: 16 June)

Event Time Altitude Azimuth Distance (km) Brightness Sun altitude
Rises 20:44:17 0° 352° (N) 2,913 8.0 -6.9°
Reaches altitude 10° 20:46:33 10° 356° (N) 2,006 7.0 -7.2°
Maximum altitude 20:50:57 58° 76° (ENE) 731 3.8 -7.6°
Drops below altitude 10° 20:55:20 10° 156° (SSE) 2,000 5.6 -8.1°
Enters shadow 20:55:33 - 157° (SSE) 2,091 5.7 -8.1°
